THORAD AGENA D DEB, 4918

Orbit data source: Space-Track

THORAD AGENA D DEB, 4918 is space debris in SSO originally from a launch on Wed, 08 Apr 1970 UTC launched from the Air Force Western Test Range (AFWTR). Debris objects in space refer to the collection of defunct objects orbiting the Earth. Examples of debris include non-operational satellites, rocket bodies, and fragments generated from explosions, collisions, or faulty payload assembly.

Loading next visibility...
Identifier
4918, 1970-025FQ
Orbit
SSO
Country
Flag of USUS
Related business
Manufacturer
Unknown
Mission
Spacecraft
Bus & Motor
Unknown
Mass
Unknown
Launch date (UTC)
1970-04-08 (56 years ago)
Launch vehicle
Unknown
Launch site
Air Force Western Test Range (AFWTR)
Object type
Payload
Rocket body
Debris
Shape & HBR
Unknown shape, 0.1 m
Radar Cross Section
Medium (>0.1 m² and <1 m²)

Expand to show TLE details & history
Last TLE update: 2 days ago

TLE from 2 days ago
0 THORAD AGENA D DEB
1  4918U 70025FQ  26171.34924142  .00000114  00000-0  30705-3 0  9996
2  4918  99.4848 312.8505 0161411  36.2309 324.9620 13.29607744713052
Epoch: 2026-06-20T08:22Z
TLE epoch observation values (Epoch: 2026-06-20T08:22:54.458Z)
Latitude
-0.00008°
Longitude
-81.44154°
Altitude
1,052.182 km
Speed
7.374 km/s
True Right ascension
20h 51m 24s
True Declination
0° 00' 00"
Sunlit
Object was in full shadow at epoch
Visualization orbit readout
Latitude
Unknown
Longitude
Unknown
Altitude
Unknown
Speed
Unknown
Apparent Right ascension
Unknown
Apparent Declination
Unknown
Sunlit
N/A
Visualization observer readout
Local Sidereal Time
00:50:09
Azimuth
Unknown
Elevation
Unknown
Doppler factor
Unknown
Orbital elements
Apogee altitude
1,267.001 km
Perigee altitude
1,024.119 km
Semi-major axis
7,523.697 km
Eccentricity
0.01614
Inclination
99.4848°
RAAN
312.8505°
Arg. of periapsis
36.2309°
True anomaly
323.88233°
Mean anomaly
324.962°
Eccentric anomaly
324.42396°
Mean motion
3.3258 °/min
Orbital period
108.24 mins
BSTAR
0.00030705

Documentation

Showing up to 5 results
|